Date String (YYYY-MM-DD hh:mm:ss) UTC,Instrument flags,Ambient pressure (hPa),Sample flow (lpm),Bypass flow (lpm),Sample temperature (°C),Ambient temperature (°C),ASC tube jacket temperature (°C),LED temperature (°C),Box temperature (°C),Sample RH (%),Span deviation,Mass concentration (μg/m³),Mass concentration (μg/m³),Mass concentration (μg/m³)
DateTimeUTC,F1_M11,P_M11,Q1_M11,Q2_M11,T1_M11,T2_M11,T3_M11,T4_M11,T5_M11,U1_M11,ZSPAN_M11,X2_M11,X0_M11,X1_M11
2023-05-13 20:00:00,,0837.1,5.01,0.00,29.3,28.0,00.0,37.6,30.9,19.9,0000.0,0000.91,0002.80,0000.76
2023-05-13 20:01:00,,0837.1,5.00,0.00,29.3,28.0,00.0,37.6,31.0,19.7,0000.0,0000.96,0002.88,0000.77
2023-05-13 20:02:00,,0837.1,4.98,0.00,29.4,28.0,00.0,37.7,31.0,19.9,0000.0,0000.97,0002.92,0000.77
2023-05-13 20:03:00,,0837.1,5.00,0.00,29.4,28.0,00.0,37.7,30.9,20.3,0000.0,0000.96,0002.92,0000.77
2023-05-13 20:04:00,,0837.1,5.01,0.00,29.4,28.0,00.0,37.7,30.9,19.8,0000.0,0000.97,0002.93,0000.78
2023-05-13 20:05:00,,0837.1,5.00,0.00,29.4,28.0,00.0,37.7,31.0,20.2,0000.0,0001.02,0002.60,0000.79
2023-05-13 20:06:00,,0837.1,5.00,0.00,29.4,28.0,00.0,37.7,31.0,20.0,0000.0,0001.01,0002.63,0000.79
2023-05-13 20:07:00,,0837.1,5.00,0.00,29.4,28.1,00.0,37.7,31.0,19.6,0000.0,0001.03,0002.66,0000.80
2023-05-13 20:08:00,,0837.1,5.00,0.00,29.4,28.1,00.0,37.7,31.0,19.5,0000.0,0001.05,0002.69,0000.81
2023-05-13 20:09:00,,0837.1,5.00,0.00,29.4,28.1,00.0,37.7,31.0,19.4,0000.0,0001.08,0002.76,0000.81
2023-05-13 20:10:00,,0837.0,5.02,0.00,29.4,28.1,00.0,37.7,31.0,19.9,0000.0,0001.09,0002.60,0000.82
2023-05-13 20:11:00,,0837.1,4.99,0.00,29.4,28.1,00.0,37.7,31.0,19.6,0000.0,0001.09,0001.82,0000.82
2023-05-13 20:12:00,,0837.1,4.99,0.00,29.5,28.1,00.0,37.7,31.1,19.5,0000.0,0001.06,0001.83,0000.81
2023-05-13 20:13:00,,0837.0,5.00,0.00,29.5,28.2,00.0,37.8,31.1,19.4,0000.0,0001.07,0001.86,0000.81
2023-05-13 20:14:00,,0837.0,5.01,0.00,29.5,28.2,00.0,37.8,31.1,20.2,0000.0,0001.08,0001.88,0000.80
2023-05-13 20:15:00,,0837.0,5.00,0.00,29.5,28.2,00.0,37.8,31.1,20.8,0000.0,0001.10,0001.92,0000.81
2023-05-13 20:16:00,,0837.0,4.99,0.00,29.5,28.2,00.0,37.8,31.1,20.0,0000.0,0001.09,0001.87,0000.81
2023-05-13 20:17:00,,0836.9,5.01,0.00,29.5,28.1,00.0,37.8,31.1,20.1,0000.0,0001.07,0001.67,0000.81
2023-05-13 20:18:00,,0837.0,5.01,0.00,29.5,28.1,00.0,37.8,31.1,20.2,0000.0,0001.05,0001.61,0000.81
2023-05-13 20:19:00,,0836.9,4.99,0.00,29.5,28.1,00.0,37.8,31.1,20.4,0000.0,0001.03,0001.56,0000.81
2023-05-13 20:20:00,,0836.9,4.99,0.00,29.5,28.1,00.0,37.8,31.1,20.4,0000.0,0001.01,0001.50,0000.80
2023-05-13 20:21:00,,0837.0,5.01,0.00,29.5,28.1,00.0,37.8,31.1,19.7,0000.0,0000.99,0001.48,0000.79
2023-05-13 20:22:00,,0837.0,5.01,0.00,29.5,28.1,00.0,37.8,31.1,19.9,0000.0,0000.99,0001.46,0000.79
2023-05-13 20:23:00,,0837.0,5.00,0.00,29.5,28.1,00.0,37.8,31.1,20.5,0000.0,0000.94,0001.32,0000.78
2023-05-13 20:24:00,,0836.9,5.00,0.00,29.5,28.1,00.0,37.8,31.1,20.2,0000.0,0000.93,0001.28,0000.77
2023-05-13 20:25:00,,0836.9,4.99,0.00,29.5,28.1,00.0,37.9,31.1,20.5,0000.0,0000.91,0001.23,0000.77
2023-05-13 20:26:00,,0836.9,5.02,0.00,29.5,28.1,00.0,37.9,31.1,20.6,0000.0,0000.90,0001.21,0000.76
2023-05-13 20:27:00,,0836.9,5.00,0.00,29.6,28.2,00.0,37.9,31.1,19.8,0000.0,0000.89,0001.19,0000.75
2023-05-13 20:28:00,,0837.0,4.99,0.00,29.6,28.2,00.0,37.9,31.1,19.6,0000.0,0000.93,0001.36,0000.75
2023-05-13 20:29:00,,0837.0,5.00,0.00,29.6,28.2,00.0,37.9,31.1,19.9,0000.0,0000.95,0001.43,0000.74
2023-05-13 20:30:00,,0837.0,5.00,0.00,29.6,28.2,00.0,37.9,31.1,20.3,0000.0,0000.97,0001.53,0000.74
2023-05-13 20:31:00,,0837.0,4.99,0.00,29.6,28.2,00.0,37.9,31.2,20.5,0000.0,0000.96,0001.60,0000.73
2023-05-13 20:32:00,,0836.9,5.00,0.00,29.6,28.2,00.0,37.9,31.2,20.0,0000.0,0000.93,0001.55,0000.73
2023-05-13 20:33:00,,0837.0,5.01,0.00,29.6,28.2,00.0,37.9,31.2,20.3,0000.0,0000.93,0001.53,0000.73
2023-05-13 20:34:00,,0837.0,5.00,0.00,29.6,28.2,00.0,37.9,31.2,19.7,0000.0,0000.95,0001.58,0000.74
2023-05-13 20:35:00,,0837.0,5.00,0.00,29.6,28.2,00.0,37.9,31.2,19.6,0000.0,0000.96,0001.58,0000.75
2023-05-13 20:36:00,,0837.0,5.00,0.00,29.6,28.2,00.0,37.9,31.2,20.0,0000.0,0000.98,0001.64,0000.76
2023-05-13 20:37:00,,0837.0,4.99,0.00,29.6,28.3,00.0,38.0,31.2,20.3,0000.0,0000.99,0001.71,0000.77
2023-05-13 20:38:00,,0837.1,5.00,0.00,29.6,28.3,00.0,38.0,31.2,20.8,0000.0,0000.98,0001.67,0000.77
2023-05-13 20:39:00,,0837.1,5.02,0.00,29.6,28.3,00.0,38.0,31.2,20.1,0000.0,0000.92,0001.46,0000.76
2023-05-13 20:40:00,,0837.1,4.99,0.00,29.7,28.3,00.0,38.0,31.2,20.0,0000.0,0000.90,0001.40,0000.75
2023-05-13 20:41:00,,0837.1,4.99,0.00,29.7,28.3,00.0,38.0,31.2,20.0,0000.0,0000.87,0001.30,0000.74
2023-05-13 20:42:00,,0837.0,5.00,0.00,29.7,28.3,00.0,38.0,31.2,20.4,0000.0,0000.86,0001.21,0000.74
2023-05-13 20:43:00,,0837.1,5.00,0.00,29.7,28.3,00.0,38.0,31.2,20.0,0000.0,0000.84,0001.17,0000.73
2023-05-13 20:44:00,,0837.2,5.00,0.00,29.7,28.3,00.0,38.0,31.3,19.9,0000.0,0000.84,0001.29,0000.71
2023-05-13 20:45:00,,0837.2,5.00,0.00,29.7,28.3,00.0,38.0,31.3,20.2,0000.0,0000.83,0001.34,0000.70
2023-05-13 20:46:00,,0837.2,4.99,0.00,29.7,28.3,00.0,38.0,31.3,20.3,0000.0,0000.80,0001.29,0000.68
2023-05-13 20:47:00,,0837.2,5.00,0.00,29.7,28.4,00.0,38.0,31.3,20.4,0000.0,0000.77,0001.24,0000.65
2023-05-13 20:48:00,,0837.1,5.01,0.00,29.7,28.3,00.0,38.0,31.3,20.0,0000.0,0000.77,0001.20,0000.65
2023-05-13 20:49:00,,0837.1,5.02,0.00,29.7,28.4,00.0,38.0,31.3,20.0,0000.0,0000.77,0001.19,0000.66
2023-05-13 20:50:00,,0837.1,5.00,0.00,29.7,28.4,00.0,38.1,31.3,20.0,0000.0,0000.78,0001.20,0000.68
2023-05-13 20:51:00,,0837.1,5.00,0.00,29.7,28.3,00.0,38.1,31.3,20.1,0000.0,0000.79,0001.20,0000.69
2023-05-13 20:52:00,,0837.1,4.99,0.00,29.7,28.3,00.0,38.1,31.3,19.9,0000.0,0000.81,0001.26,0000.70
2023-05-13 20:53:00,,0837.0,5.00,0.00,29.7,28.3,00.0,38.1,31.3,20.0,0000.0,0000.85,0001.41,0000.71
2023-05-13 20:54:00,,0837.1,5.00,0.00,29.8,28.3,00.0,38.1,31.3,19.9,0000.0,0000.88,0001.46,0000.74
2023-05-13 20:55:00,,0837.1,5.01,0.00,29.8,28.4,00.0,38.1,31.3,20.5,0000.0,0000.88,0001.47,0000.75
2023-05-13 20:56:00,,0837.1,5.00,0.00,29.8,28.4,00.0,38.1,31.3,20.1,0000.0,0000.89,0001.44,0000.76
2023-05-13 20:57:00,,0837.1,5.00,0.00,29.8,28.4,00.0,38.1,31.3,20.3,0000.0,0000.90,0001.45,0000.77
2023-05-13 20:58:00,,0837.1,5.00,0.00,29.8,28.4,00.0,38.1,31.3,20.2,0000.0,0000.90,0001.46,0000.78
2023-05-13 20:59:00,,0837.1,5.01,0.00,29.8,28.4,00.0,38.1,31.4,19.9,0000.0,0000.89,0001.57,0000.78
